Regional Weather Roundup
Issued by NWS Kansas City/Pleasant Hill, MO

Home | Current Version | Previous Version | Graphics & Text | Print | Product List | Glossary Off
Versions: 1 2 3 4 5 6 7 8 9 10 11 12 13 14 15 16 17 18 19 20 21 22 23 24 25 26 27 28 29 30 31 32 33 34 35 36 37 38 39 40 41 42 43 44 45 46 47 48 49 50

000
ASUS43 KEAX 280910
RWREAX

WEATHER ROUNDUP FOR EASTERN KANSAS AND NORTHWEST MISSOURI
NATIONAL WEATHER SERVICE KANSAS CITY/PLEASANT HILL MO
400 AM CDT FRI JUL 28 2017

KSZ040-057-103>105-MOZ028-029-037-043-281000-
...KANSAS CITY METROPOLITAN AREA...

CITY           SKY/WX    TMP DP  RH WIND       PRES   REMARKS
K.C. INTL      CLOUDY    73  68  84 NE9       29.96S
K.C. DOWNTOWN  NOT AVBL
LEES SUMMIT    CLOUDY    74  73  97 NE6       29.95S
OLATHE - IXD   CLEAR     71  70  96 N3        29.95F
OLATHE - OJC   CLEAR     73  72  96 N3        29.95S
LAWRENCE       MOCLDY    73  70  90 N3        29.95R

$$

MOZ001>008-011>017-020>025-030>033-038>040-044>046-053-054-281000-
...NORTHERN AND CENTRAL MISSOURI...

CITY           SKY/WX    TMP DP  RH WIND       PRES   REMARKS
ST. JOSEPH     CLEAR     69  66  90 CALM      29.97R
WARRENSBURG    CLEAR     70  70 100 NW3       29.93S FOG
WHITEMAN AFB   PTCLDY    70  70 100 N6        29.92F FOG
CLINTON        CLEAR     72  72 100 CALM      29.92F FOG
SEDALIA        CLOUDY    74  74 100 N3        29.94S
WARSAW         NOT AVBL
CHILLICOTHE      N/A     71  68  90 CALM      29.97S
KIRKSVILLE     CLEAR     67  65  93 NE6       29.97S

$$

MOZ041-047>049-056>058-063>065-088>090-097-281000-
...EASTERN AND SOUTHERN MISSOURI...

CITY           SKY/WX    TMP DP  RH WIND       PRES   REMARKS
ST. LOUIS INTL CLOUDY    76  68  76 NE8       29.89R
SPIRIT OF STL  CLOUDY    75  71  87 NE9       29.87S
COLUMBIA       CLEAR     73  72  96 NE8       29.92R
JEFFERSON CITY MOCLDY    76  74  93 NE3       29.90S
ROLLA          PTCLDY    71  71 100 N5        29.92S
OSAGE BEACH    CLEAR     72  72 100 CALM      29.92R
SPRINGFIELD    CLOUDY    77  76  96 CALM      29.90F
BRANSON        CLOUDY    75  75 100 CALM      29.92S FOG
JOPLIN         CLOUDY    76  76 100 CALM      29.90S
WEST PLAINS    CLOUDY    75  73  93 CALM      29.91F

$$

IAZ060-094-KSZ022-034>040-054-083-096-NEZ052-066-093-281000-
...KANSAS...SOUTHEAST NEBRASKA AND IOWA...

CITY           SKY/WX    TMP DP  RH WIND       PRES   REMARKS
TOPEKA         PTCLDY    70  69  97 N5        29.95S
MANHATTAN      CLOUDY    70  65  84 CALM      29.97S
EMPORIA        CLEAR     71  67  87 N6        29.95F
CHANUTE        CLEAR     77  74  90 N6        29.91F
WICHITA        CLOUDY    76  71  85 NE10      29.96R
OMAHA          PTCLDY    66  62  87 N7        30.02R
LINCOLN        CLEAR     67  63  87 N3        30.04R
FALLS CITY     MOCLDY    69  63  81 CALM      29.98S
LAMONI         PTCLDY    67  62  84 NE7       30.00R
DES MOINES     CLEAR     69  64  84 CALM      30.00S

$$




USA.gov is the U.S. government's official web portal to all federal, state and local government web resources and services.